Location: B?jaj?g
(11.7167°N, 92.6667°E)
Time: 22:53:27
(UTC+00:00)

Delta 198 - Pass Details

Date: 18 September 2020
Orbit: 458 x 1019 km, 24.8° (Epoch: 21 October)

Event Time Altitude Azimuth Distance (km) Brightness Sun altitude
Rises 12:22:24 0° 290° (WNW) 3,586 9.2 -9.2°
Reaches altitude 10° 12:25:13 10° 288° (WNW) 2,570 8.2 -9.9°
Maximum altitude 12:31:22 69° 206° (SSW) 859 4.3 -11.4°
Enters shadow 12:36:01 13° 124° (SE) 1,985 5.6 -12.6°
